Regional Weather Roundup
Issued by NWS

Home | Current Version | Previous Version | Text Only | Print | Product List | Glossary On
Versions: 1 2 3 4 5 6 7 8 9 10 11 12 13 14 15 16 17 18 19 20 21 22 23 24 25 26 27
000
ASUS44 KLIX 280213
RWRLA
LOUISIANA WEATHER ROUNDUP
NATIONAL WEATHER SERVICE NEW ORLEANS LA
900 PM CDT TUE JUN 27 2017

NOTE: "FAIR" INDICATES FEW OR NO CLOUDS BELOW 12,000 FEET WITH NO
      SIGNIFICANT WEATHER AND/OR OBSTRUCTIONS TO VISIBILITY.
      SKY/WX - SKY CONDITION AND SIGNIFICANT WEATHER.
      TMP - AIR TEMPERATURE.    DP   - DEWPOINT TEMPERATURE.
      RH  - RELATIVE HUMIDITY.  PRES - PRESSURE.
      HX  - HEAT INDEX.         WCI  - WIND CHILL INDEX.

*  THESE STATIONS ARE NOT NWS OR FAA STATIONS AND ARE NOT UNDER
   NWS QUALITY CONTROL.

LAZ040-048-061>063-065-066-069-280300-
SOUTHEAST LOUISIANA

CITY           SKY/WX    TMP DP  RH WIND       PRES   REMARKS
N.O. INTL ARPT CLOUDY    79  64  60 SE3       29.99R
N.O. LAKEFRONT CLOUDY    81  67  62 SE3       30.00R
N.O. DOWNTOWN*   N/A     82  64  54 CALM        N/A
RESERVE*       FAIR      78  71  80 CALM      30.00R
SLIDELL        MOCLDY    77  72  84 CALM      29.99S
BATON ROUGE    CLOUDY    76  70  82 E5        29.99S
BOOTHVILLE     MOCLDY    80  73  79 CALM      29.99R
BELLE CHASSE   NOT AVBL
BOGALUSA*      NOT AVBL
GALLIANO*      NOT AVBL
NEW ROADS*     NOT AVBL
GONZALES*      NOT AVBL
HAMMOND*       NOT AVBL
HOUMA*         NOT AVBL
PORT FOURCHON* MOCLDY    77  64  65 E7        29.98S

$$

LAZ041-044-053-054-280300-
SOUTHWEST LOUISIANA

CITY           SKY/WX    TMP DP  RH WIND       PRES   REMARKS
LAKE CHARLES   MOCLDY    78  76  93 E7        29.96F
LAFAYETTE      CLOUDY    76  73  91 CALM      29.99S
PATTERSON      MOCLDY    74  74 100 S3        30.00R
SALT POINT       N/A     76  73  91 CALM      29.97S
NEW IBERIA     CLOUDY    76  71  85 CALM      29.99F
CHENAULT AIRPK CLEAR     73  70  88 CALM      29.98S

$$

LAZ027-028-280300-
CENTRAL LOUISIANA

CITY           SKY/WX    TMP DP  RH WIND       PRES   REMARKS
FORT POLK      CLOUDY    74  70  87 E3        29.98F
ALEXANDRIA INT CLOUDY    77  71  82 S3        29.98R
ALEXANDRIA     CLOUDY    75  72  90 CALM      30.00R

$$

LAZ001-002-280300-
NORTHWEST LOUISIANA

CITY           SKY/WX    TMP DP  RH WIND       PRES   REMARKS
SHREVEPORT     PTCLDY    79  68  69 SE5       29.97R
BARKSDALE AFB  CLEAR     77  66  68 E5        29.97R
DTN SHREVEPORT CLEAR     82  66  58 E5        29.98R

$$

LAZ014-016-280300-
NORTHEAST LOUISIANA

CITY           SKY/WX    TMP DP  RH WIND       PRES   REMARKS
MONROE         CLEAR     76  70  82 CALM      30.01R
TALLULAH       PTCLDY    75  70  84 CALM      30.00R

$$





USA.gov is the U.S. government's official web portal to all federal, state and local government web resources and services.